Location: Unspecified
(41.9031°N, 12.4386°E)
Time: 05:30:46
(UTC+01:00)

ISS - Pass Details

Date: 10 December 2019
Orbit: 411 x 421 km, 51.6° (Epoch: 15 December)

Event Time Altitude Azimuth Distance (km) Brightness Sun altitude
Rises 18:25:11 0° 297° (WNW) 2,359 0.8 -19.0°
Reaches altitude 10° 18:27:26 10° 285° (WNW) 1,494 -0.1 -19.5°
Maximum altitude 18:30:23 29° 224° (SW) 805 -1.8 -20.0°
Enters shadow 18:32:55 12° 166° (SSE) 1,350 -1.2 -20.4°
